• In India
  • List of Countries
  • For 7 days
  • Water Temperature
  • Satellite Maps
  • Weather Map
  • Weather Widgets
  • user-avatar
    Login

    Hourly Weather Zaluchchya

    Today, 17 January, Thursday

    Time Temperature Precipitation Wind Pressure Humidity
    00:00 +3°C° 0 mm 1 mps 733 mmHg 81%
    01:00 -1°C° 0 mm 2 mps 732 mmHg 85%
    02:00 -1°C° 0 mm 3 mps 732 mmHg 90%
    03:00 -2°C° 0 mm 2 mps 732 mmHg 92%
    04:00 -3°C° 0 mm 2 mps 731 mmHg 95%
    05:00 -4°C° 0 mm 2 mps 731 mmHg 97%
    06:00 -2°C° 0 mm 1 mps 731 mmHg 97%
    07:00 -3°C° 0 mm 1 mps 730 mmHg 100%
    08:00 -3°C° 0 mm 1 mps 730 mmHg 100%
    09:00 -6°C° 0 mm 2 mps 729 mmHg 99%
    10:00 -5°C° 0 mm 2 mps 729 mmHg 99%
    11:00 -1°C° 0 mm 1 mps 730 mmHg 98%
    12:00 0°C° 0 mm 0 mps 730 mmHg 94%
    13:00 +1°C° 0 mm 0 mps 729 mmHg 93%
    14:00 +3°C° 0 mm 1 mps 729 mmHg 95%
    15:00 +3°C° 0 mm 1 mps 729 mmHg 93%
    16:00 +3°C° 0 mm 1 mps 729 mmHg 88%
    17:00 +3°C° 0 mm 1 mps 730 mmHg 87%
    18:00 +3°C° 0 mm 1 mps 730 mmHg 86%
    19:00 +2°C° 0 mm 0 mps 730 mmHg 84%
    20:00 +2°C° 0 mm 2 mps 730 mmHg 78%
    21:00 +2°C° 0 mm 3 mps 730 mmHg 77%
    22:00 +2°C° 0 mm 3 mps 730 mmHg 78%
    23:00 +3°C° 0 mm 2 mps 730 mmHg 78%

    Tomorrow, 18 January, Friday

    Time Temperature Precipitation Wind Pressure Humidity
    00:00 +3°C° 0 mm 2 mps 730 mmHg 77%
    01:00 +4°C° 0 mm 1 mps 730 mmHg 75%
    02:00 +2°C° 0 mm 2 mps 730 mmHg 78%
    03:00 -2°C° 0 mm 2 mps 730 mmHg 87%
    04:00 -2°C° 0 mm 2 mps 730 mmHg 90%
    05:00 -3°C° 0 mm 2 mps 730 mmHg 91%
    06:00 -3°C° 0 mm 2 mps 730 mmHg 92%
    07:00 -4°C° 0 mm 2 mps 730 mmHg 95%
    08:00 -5°C° 0 mm 2 mps 729 mmHg 98%
    09:00 -4°C° 0 mm 1 mps 729 mmHg 100%
    10:00 -4°C° 0 mm 0 mps 730 mmHg 100%
    11:00 -3°C° 0 mm 2 mps 730 mmHg 94%
    12:00 -1°C° 0 mm 3 mps 731 mmHg 93%
    13:00 +2°C° 0 mm 2 mps 731 mmHg 96%
    14:00 +2°C° 0 mm 3 mps 732 mmHg 97%
    15:00 -2°C° 0.2 mm 6 mps 732 mmHg 100%
    16:00 -2°C° 0.5 mm 4 mps 733 mmHg 100%
    17:00 -2°C° 0.2 mm 5 mps 734 mmHg 93%
    18:00 -1°C° 0 mm 3 mps 735 mmHg 97%
    19:00 -2°C° 0 mm 4 mps 735 mmHg 92%
    20:00 -4°C° 0 mm 4 mps 736 mmHg 90%
    21:00 -7°C° 0 mm 5 mps 736 mmHg 88%
    22:00 -8°C° 0 mm 5 mps 737 mmHg 90%
    23:00 -10°C° 0 mm 5 mps 738 mmHg 94%

    Day after tomorrow, 19 January, Saturday

    Time Temperature Precipitation Wind Pressure Humidity
    00:00 -9°C° 0 mm 4 mps 739 mmHg 96%
    01:00 -10°C° 0 mm 4 mps 739 mmHg 97%
    02:00 -9°C° 0 mm 3 mps 740 mmHg 96%
    03:00 -10°C° 0 mm 3 mps 740 mmHg 95%
    04:00 -9°C° 0 mm 2 mps 740 mmHg 92%
    05:00 -10°C° 0 mm 3 mps 741 mmHg 89%
    06:00 -9°C° 0 mm 2 mps 741 mmHg 87%
    07:00 -9°C° 0 mm 2 mps 741 mmHg 86%
    08:00 -8°C° 0 mm 1 mps 742 mmHg 85%
    09:00 -8°C° 0 mm 1 mps 742 mmHg 86%
    10:00 -8°C° 0 mm 0 mps 742 mmHg 88%
    11:00 -7°C° 0 mm 0 mps 742 mmHg 89%
    12:00 -6°C° 0 mm 0 mps 742 mmHg 92%
    13:00 -4°C° 0 mm 1 mps 741 mmHg 97%
    14:00 -5°C° 0 mm 2 mps 741 mmHg 97%
    15:00 -5°C° 0 mm 3 mps 741 mmHg 98%
    16:00 -7°C° 0 mm 4 mps 741 mmHg 99%
    17:00 -8°C° 0 mm 4 mps 740 mmHg 100%
    18:00 -9°C° 0 mm 4 mps 740 mmHg 100%
    19:00 -10°C° 0 mm 4 mps 740 mmHg 100%
    20:00 -10°C° 0 mm 4 mps 739 mmHg 100%
    21:00 -11°C° 0 mm 4 mps 739 mmHg 100%
    22:00 -11°C° 0 mm 4 mps 738 mmHg 100%
    23:00 -11°C° 0 mm 4 mps 738 mmHg 100%

    20 January, Sunday

    Time Temperature Precipitation Wind Pressure Humidity
    00:00 -10°C° 0 mm 4 mps 738 mmHg 100%
    01:00 -10°C° 0 mm 4 mps 737 mmHg 100%
    02:00 -10°C° 0.4 mm 4 mps 737 mmHg 100%
    03:00 -10°C° 0.6 mm 4 mps 736 mmHg 100%
    04:00 -10°C° 0.4 mm 4 mps 735 mmHg 100%
    05:00 -10°C° 0.1 mm 4 mps 734 mmHg 100%
    06:00 -11°C° 0 mm 4 mps 733 mmHg 100%
    07:00 -11°C° 0 mm 4 mps 733 mmHg 100%
    08:00 -12°C° 0 mm 3 mps 733 mmHg 100%
    09:00 -9°C° 0 mm 1 mps 733 mmHg 100%
    10:00 -9°C° 0 mm 1 mps 733 mmHg 100%
    11:00 -8°C° 0 mm 0 mps 733 mmHg 99%
    12:00 -7°C° 0 mm 0 mps 733 mmHg 99%
    13:00 -7°C° 0 mm 1 mps 732 mmHg 99%
    14:00 -6°C° 0 mm 2 mps 732 mmHg 99%

    21 January, Monday

    Time Temperature Precipitation Wind Pressure Humidity

    22 January, Tuesday

    Time Temperature Precipitation Wind Pressure Humidity
    Show more